H1 CPF 2 NER 2025 8 30 9 242 01 glonass138 H2 1805301 9138 43508 2025 8 30 0 0 0 2025 9 2 23 45 0 900 1 1 0 0 0 1 H9 10 0 60917 0.00000 0 11891550.520 -5624618.987 -21844595.340 10 0 60917 900.00000 0 11208618.503 -2956759.746 -22714404.141 10 0 60917 1800.00000 0 10714496.771 -166720.141 -23142757.216 10 0 60917 2700.00000 0 10428291.529 2677133.297 -23121434.793 10 0 60917 3600.00000 0 10356803.841 5503941.421 -22650955.239 10 0 60917 4500.00000 0 10494278.835 8243059.373 -21740556.930 10 0 60917 5400.00000 0 10822700.486 10826755.271 -20408011.663 10 0 60917 6300.00000 0 11312618.677 13192789.416 -18679273.626 10 0 60917 7200.00000 0 11924473.063 15286767.806 -16587971.057 10 0 60917 8100.00000 0 12610357.432 17064173.299 -14174750.492 10 0 60917 9000.00000 0 13316149.964 18491991.157 -11486486.315 10 0 60917 9900.00000 0 13983919.449 19549862.569 -8575370.802 10 0 60917 10800.00000 0 14554506.029 20230719.382 -5497902.167 10 0 60917 11700.00000 0 14970167.681 20540874.866 -2313790.059 10 0 60917 12600.00000 0 15177180.895 20499567.911 915200.368 10 0 60917 13500.00000 0 15128285.923 20137980.887 4126443.511 10 0 60917 14400.00000 0 14784873.390 19497773.253 7257664.422 10 0 60917 15300.00000 0 14118819.962 18629193.188 10248142.569 10 0 60917 16200.00000 0 13113895.345 17588847.014 13039885.088 10 0 60917 17100.00000 0 11766680.843 16437220.352 15578747.016 10 0 60917 18000.00000 0 10086960.036 15236055.170 17815477.087 10 0 60917 18900.00000 0 8097564.129 14045692.715 19706669.250 10 0 60917 19800.00000 0 5833677.094 12922493.568 21215601.895 10 0 60917 20700.00000 0 3341628.199 11916442.756 22312948.972 10 0 60917 21600.00000 0 677220.646 11069039.977 22977349.589 10 0 60917 22500.00000 0 -2096335.747 10411563.146 23195825.306 10 0 60917 23400.00000 0 -4910803.419 9963777.903 22964037.020 10 0 60917 24300.00000 0 -7695510.174 9733147.203 22286376.293 10 0 60917 25200.00000 0 -10380050.109 9714574.332 21175888.825 10 0 60917 26100.00000 0 -12896981.193 9890690.528 19654030.866 10 0 60917 27000.00000 0 -15184408.153 10232675.559 17750262.390 10 0 60917 27900.00000 0 -17188343.667 10701577.299 15501483.944 10 0 60917 28800.00000 0 -18864749.699 11250075.181 12951327.153 10 0 60917 29700.00000 0 -20181173.781 11824613.490 10149311.851 10 0 60917 30600.00000 0 -21117911.757 12367814.523 7149885.647 10 0 60917 31500.00000 0 -21668648.125 12821069.383 4011364.353 10 0 60917 32400.00000 0 -21840547.098 13127196.287 794794.026 10 0 60917 33300.00000 0 -21653790.679 13233053.000 -2437242.812 10 0 60917 34200.00000 0 -21140583.545 13091991.673 -5621852.712 10 0 60917 35100.00000 0 -20343667.299 12666050.883 -8697063.779 10 0 60917 36000.00000 0 -19314407.538 11927790.772 -11603040.058 10 0 60917 36900.00000 0 -18110535.421 10861692.401 -14283253.128 10 0 60917 37800.00000 0 -16793640.043 9465061.029 -16685587.261 10 0 60917 38700.00000 0 -15426518.301 7748394.227 -18763356.088 10 0 60917 39600.00000 0 -14070494.728 5735198.520 -20476210.687 10 0 60917 40500.00000 0 -12782824.672 3461261.622 -21790921.537 10 0 60917 41400.00000 0 -11614290.218 973410.265 -22682019.509 10 0 60917 42300.00000 0 -10607089.699 -1672194.794 -23132284.040 10 0 60917 43200.00000 0 -9793108.899 -4412155.768 -23133069.768 10 0 60917 44100.00000 0 -9192645.592 -7178239.840 -22684466.100 10 0 60917 45000.00000 0 -8813639.887 -9899986.596 -21795287.342 10 0 60917 45900.00000 0 -8651441.418 -12507413.034 -20482894.246 10 0 60917 46800.00000 0 -8689121.890 -14933704.416 -18772850.870 10 0 60917 47700.00000 0 -8898318.711 -17117779.878 -16698423.699 10 0 60917 48600.00000 0 -9240573.187 -19006627.072 -14299932.852 10 0 60917 49500.00000 0 -9669106.211 -20557309.741 -11623967.886 10 0 60917 50400.00000 0 -10130956.042 -21738565.626 -8722483.334 10 0 60917 51300.00000 0 -10569387.719 -22531929.239 -5651791.328 10 0 60917 52200.00000 0 -10926472.277 -22932333.698 -2471470.674 10 0 60917 53100.00000 0 -11145726.790 -22948167.499 756786.564 10 0 60917 54000.00000 0 -11174703.801 -22600784.821 3970368.729 10 0 60917 54900.00000 0 -10967420.722 -21923490.692 7106955.433 10 0 60917 55800.00000 0 -10486526.574 -20960044.203 10105722.224 10 0 60917 56700.00000 0 -9705114.374 -19762743.011 12908515.851 10 0 60917 57600.00000 0 -8608102.354 -18390169.712 15460977.596 10 0 60917 58500.00000 0 -7193125.127 -16904694.641 17713593.183 10 0 60917 59400.00000 0 -5470896.423 -15369839.627 19622649.327 10 0 60917 60300.00000 0 -3465026.872 -13847612.847 21151078.849 10 0 60917 61200.00000 0 -1211303.030 -12395925.986 22269178.397 10 0 60917 62100.00000 0 1243543.947 -11066201.318 22955185.266 10 0 60917 63000.00000 0 3843530.355 -9901268.373 23195702.377 10 0 60917 63900.00000 0 6525504.032 -8933637.811 22985963.205 10 0 60917 64800.00000 0 9221535.455 -8184224.404 22329931.316 10 0 60917 65700.00000 0 11861517.913 -7661572.486 21240232.118 10 0 60917 66600.00000 0 14375869.875 -7361616.289 19737917.428 10 0 60917 67500.00000 0 16698228.047 -7267985.354 17852066.534 10 0 60917 68400.00000 0 18768019.621 -7352842.381 15619230.522 10 0 60917 69300.00000 0 20532806.702 -7578218.451 13082729.681 10 0 60917 70200.00000 0 21950305.044 -7897789.499 10291816.837 10 0 60917 71100.00000 0 22989992.451 -8259019.005 7300722.252 10 0 60917 72000.00000 0 23634239.154 -8605576.114 4167598.448 10 0 60917 72900.00000 0 23878912.426 -8879926.312 953385.559 10 0 60917 73800.00000 0 23733429.848 -9025984.164 -2279380.274 10 0 60917 74700.00000 0 23220259.020 -8991714.674 -5467791.464 10 0 60917 75600.00000 0 22373885.027 -8731571.803 -8549801.737 10 0 60917 76500.00000 0 21239289.724 -8208669.532 -11465442.007 10 0 60917 77400.00000 0 19870007.626 -7396592.243 -14157994.672 10 0 60917 78300.00000 0 18325841.229 -6280766.617 -16575102.616 10 0 60917 79200.00000 0 16670332.818 -4859335.991 -18669790.744 10 0 60917 80100.00000 0 14968099.991 -3143499.429 -20401379.870 10 0 60917 81000.00000 0 13282147.482 -1157300.439 -21736275.241 10 0 60917 81900.00000 0 11671268.446 1063126.389 -22648614.748 10 0 60917 82800.00000 0 10187644.161 3470819.723 -23120764.784 10 0 60917 83700.00000 0 8874742.296 6009714.398 -23143654.925 10 0 60917 84600.00000 0 7765600.912 8616751.350 -22716945.700 10 0 60917 85500.00000 0 6881568.918 11224287.087 -21849026.987 10 0 60918 0.00000 0 6231554.397 13762702.598 -20556847.832 10 0 60918 900.00000 0 5811810.466 16163105.113 -18865580.698 10 0 60918 1800.00000 0 5606266.962 18360007.526 -16808128.772 10 0 60918 2700.00000 0 5587391.446 20293879.292 -14424483.701 10 0 60918 3600.00000 0 5717543.052 21913459.974 -11760947.789 10 0 60918 4500.00000 0 5950760.787 23177741.241 -8869235.046 10 0 60918 5400.00000 0 6234910.294 24057535.314 -5805468.443 10 0 60918 6300.00000 0 6514098.006 24536565.230 -2629092.631 10 0 60918 7200.00000 0 6731250.498 24612032.149 598276.875 10 0 60918 8100.00000 0 6830749.913 24294636.765 3814045.863 10 0 60918 9000.00000 0 6761014.049 23608054.543 6955851.944 10 0 60918 9900.00000 0 6476912.018 22587887.288 9962770.007 10 0 60918 10800.00000 0 5941913.290 21280135.324 12776489.425 10 0 60918 11700.00000 0 5129879.149 19739254.452 15342440.431 10 0 60918 12600.00000 0 4026420.501 18025879.059 17610848.092 10 0 60918 13500.00000 0 2629764.110 16204306.489 19537693.880 10 0 60918 14400.00000 0 951089.764 14339847.537 21085566.655 10 0 60918 15300.00000 0 -985677.107 12496153.358 22224386.981 10 0 60918 16200.00000 0 -3144610.289 10732629.917 22931991.142 10 0 60918 17100.00000 0 -5479035.761 9102047.315 23194563.796 10 0 60918 18000.00000 0 -7933242.320 7648443.285 23006910.897 10 0 60918 18900.00000 0 -10444580.362 6405407.861 22372567.428 10 0 60918 19800.00000 0 -12945863.088 5394820.492 21303737.400 10 0 60918 20700.00000 0 -15367971.523 4626092.129 19821066.563 10 0 60918 21600.00000 0 -17642555.984 4095943.827 17953251.387 10 0 60918 22500.00000 0 -19704722.136 3788731.057 15736490.896 10 0 60918 23400.00000 0 -21495589.920 3677300.057 13213791.067 10 0 60918 24300.00000 0 -22964618.452 3724340.082 10434134.442 10 0 60918 25200.00000 0 -24071599.377 3884174.373 7451530.503 10 0 60918 26100.00000 0 -24788234.644 4104913.851 4323964.976 10 0 60918 27000.00000 0 -25099231.976 4330881.913 1112268.609 10 0 60918 27900.00000 0 -25002871.506 4505206.846 -2121072.184 10 0 60918 28800.00000 0 -24511019.394 4572471.014 -5313138.873 10 0 60918 29700.00000 0 -23648587.759 4481303.347 -8401813.782 10 0 60918 30600.00000 0 -22452463.825 4186803.912 -11326997.441 10 0 60918 31500.00000 0 -20969953.794 3652696.593 -14031785.542 10 0 60918 32400.00000 0 -19256807.635 2853117.466 -16463581.715 10 0 60918 33300.00000 0 -17374908.552 1773962.137 -18575123.890 10 0 60918 34200.00000 0 -15389725.047 413734.225 -20325403.905 10 0 60918 35100.00000 0 -13367633.123 -1216141.562 -21680462.566 10 0 60918 36000.00000 0 -11373221.250 -3091555.584 -22614045.031 10 0 60918 36900.00000 0 -9466691.042 -5176489.222 -23108104.384 10 0 60918 37800.00000 0 -7701462.038 -7424298.578 -23153144.359 10 0 60918 38700.00000 0 -6122079.970 -9779452.634 -22748395.387 10 0 60918 39600.00000 0 -4762514.856 -12179653.669 -21901821.294 10 0 60918 40500.00000 0 -3644918.644 -14558251.932 -20629957.202 10 0 60918 41400.00000 0 -2778892.704 -16846854.419 -18957582.227 10 0 60918 42300.00000 0 -2161294.157 -18978019.581 -16917233.661 10 0 60918 43200.00000 0 -1776587.406 -20887926.276 -14548572.147 10 0 60918 44100.00000 0 -1597724.583 -22518906.372 -11897610.158 10 0 60918 45000.00000 0 -1587516.512 -23821736.008 -9015818.616 10 0 60918 45900.00000 0 -1700435.382 -24757590.527 -5959128.824 10 0 60918 46800.00000 0 -1884772.321 -25299582.076 -2786848.884 10 0 60918 47700.00000 0 -2085058.251 -25433816.144 439484.509 10 0 60918 48600.00000 0 -2244645.427 -25159923.376 3657296.741 10 0 60918 49500.00000 0 -2308340.390 -24491044.834 6804185.452 10 0 60918 50400.00000 0 -2224976.954 -23453271.641 9819126.804 10 0 60918 51300.00000 0 -1949820.397 -22084562.671 12643654.630 10 0 60918 52200.00000 0 -1446701.178 -20433185.604 15222989.819 10 0 60918 53100.00000 0 -689787.799 -18555746.496 17507098.351 10 0 60918 54000.00000 0 335076.413 -16514889.917 19451657.844 10 0 60918 54900.00000 0 1629529.723 -14376765.318 21018914.371 10 0 60918 55800.00000 0 3182378.091 -12208364.822 22178413.334 10 0 60918 56700.00000 0 4969825.575 -10074842.825 22907590.673 10 0 60918 57600.00000 0 6956240.976 -8036928.418 23192213.165 10 0 60918 58500.00000 0 9095430.446 -6148537.779 23026659.369 10 0 60918 59400.00000 0 11332364.715 -4454685.384 22414035.569 10 0 60918 60300.00000 0 13605290.635 -2989780.500 21366124.019 10 0 60918 61200.00000 0 15848140.459 -1776379.626 19903163.831 10 0 60918 62100.00000 0 17993139.655 -824446.576 18053467.853 10 0 60918 63000.00000 0 19973505.276 -131150.889 15852882.024 10 0 60918 63900.00000 0 21726122.668 318787.231 13344096.713 10 0 60918 64800.00000 0 23194088.652 552220.194 10575822.607 10 0 60918 65700.00000 0 24329014.435 606201.746 7601846.505 10 0 60918 66600.00000 0 25092991.095 526179.404 4479985.120 10 0 60918 67500.00000 0 25460134.454 363827.588 1270957.288 10 0 60918 68400.00000 0 25417643.624 174613.929 -1962803.096 10 0 60918 69300.00000 0 24966328.038 15202.827 -5158369.511 10 0 60918 70200.00000 0 24120580.319 -59192.530 -8253555.914 10 0 60918 71100.00000 0 22907795.882 2603.787 -11188135.441 10 0 60918 72000.00000 0 21367263.789 245317.258 -13905019.928 10 0 60918 72900.00000 0 19548575.831 705085.990 -16351376.404 10 0 60918 73800.00000 0 17509621.185 1407691.591 -18479658.217 10 0 60918 74700.00000 0 15314251.472 2367233.559 -20248530.362 10 0 60918 75600.00000 0 13029714.641 3585303.854 -21623671.061 10 0 60918 76500.00000 0 10723965.552 5050697.044 -22578434.326 10 0 60918 77400.00000 0 8462965.869 6739668.633 -23094361.207 10 0 60918 78300.00000 0 6308085.865 8616731.089 -23161530.544 10 0 60918 79200.00000 0 4313715.954 10635954.564 -22778743.242 10 0 60918 80100.00000 0 2525186.675 12742718.124 -21953537.237 10 0 60918 81000.00000 0 977082.545 14875838.678 -20702033.572 10 0 60918 81900.00000 0 -307981.450 16969989.061 -19048617.037 10 0 60918 82800.00000 0 -1320071.388 18958304.754 -17025457.903 10 0 60918 83700.00000 0 -2062106.066 20775070.904 -14671884.135 10 0 60918 84600.00000 0 -2549483.390 22358377.987 -12033616.258 10 0 60918 85500.00000 0 -2809178.819 23652635.670 -9161879.591 10 0 60919 0.00000 0 -2878355.192 24610840.248 -6112411.196 10 0 60919 900.00000 0 -2802543.616 25196501.738 -2944378.934 10 0 60919 1800.00000 0 -2633472.897 25385149.182 280762.398 10 0 60919 2700.00000 0 -2426639.863 25165353.154 3500461.233 10 0 60919 3600.00000 0 -2238723.382 24539221.540 6652278.708 10 0 60919 4500.00000 0 -2124951.642 23522348.498 9675095.645 10 0 60919 5400.00000 0 -2136533.994 22143218.649 12510293.553 10 0 60919 6300.00000 0 -2318265.912 20442091.266 15102886.982 10 0 60919 7200.00000 0 -2706408.344 18469410.850 17402585.539 10 0 60919 8100.00000 0 -3326931.145 16283810.059 19364765.393 10 0 60919 9000.00000 0 -4194195.144 13949787.776 20951331.885 10 0 60919 9900.00000 0 -5310129.033 11535158.439 22131456.953 10 0 60919 10800.00000 0 -6663936.738 9108378.137 22882177.476 10 0 60919 11700.00000 0 -8232348.903 6735857.934 23188843.213 10 0 60919 12600.00000 0 -9980409.473 4479375.421 23045405.705 10 0 60919 13500.00000 0 -11862766.168 2393691.379 22454542.395 10 0 60919 14400.00000 0 -13825412.584 524470.061 21427613.099 10 0 60919 15300.00000 0 -15807810.686 -1093410.928 19984449.035 10 0 60919 16200.00000 0 -17745306.357 -2437091.149 18152977.621 10 0 60919 17100.00000 0 -19571738.042 -3496447.316 15968689.363 10 0 60919 18000.00000 0 -21222129.998 -4274272.953 13473956.213 10 0 60919 18900.00000 0 -22635357.536 -4785910.555 10717213.801 10 0 60919 19800.00000 0 -23756672.379 -5058352.103 7752022.768 10 0 60919 20700.00000 0 -24539981.530 -5128846.280 4636027.160 10 0 60919 21600.00000 0 -24949783.111 -5043071.797 1429830.171 10 0 60919 22500.00000 0 -24962676.826 -4852954.822 -1804190.514 10 0 60919 23400.00000 0 -24568384.509 -4614223.844 -5003103.989 10 0 60919 24300.00000 0 -23770236.973 -4383806.684 -8104659.282 10 0 60919 25200.00000 0 -22585106.075 -4217181.170 -11048505.367 10 0 60919 26100.00000 0 -21042784.503 -4165793.007 -13777373.185 10 0 60919 27000.00000 0 -19184839.352 -4274651.421 -16238195.788 10 0 60919 27900.00000 0 -17062987.830 -4580205.434 -18383144.147 10 0 60919 28800.00000 0 -14737063.630 -5108591.467 -20170558.126 10 0 60919 29700.00000 0 -12272659.604 -5874326.944 -21565754.488 10 0 60919 30600.00000 0 -9738545.695 -6879505.497 -22541696.598 10 0 60919 31500.00000 0 -7203970.187 -8113527.964 -23079513.331 10 0 60919 32400.00000 0 -4735956.766 -9553380.685 -23168857.877 10 0 60919 33300.00000 0 -2396709.612 -11164449.575 -22808100.292 10 0 60919 34200.00000 0 -241233.819 -12901835.962 -22004350.826 10 0 60919 35100.00000 0 1684730.917 -14712119.241 -20773314.259 10 0 60919 36000.00000 0 3346378.731 -16535492.823 -19138978.568 10 0 60919 36900.00000 0 4721040.288 -18308184.278 -17133144.289 10 0 60919 37800.00000 0 5798871.373 -19965058.820 -14794803.861 10 0 60919 38700.00000 0 6583000.505 -21442297.603 -12169382.930 10 0 60919 39600.00000 0 7089131.153 -22680039.120 -9307858.261 10 0 60919 40500.00000 0 7344616.927 -23624873.536 -6265769.199 10 0 60919 41400.00000 0 7387049.984 -24232085.811 -3102141.631 10 0 60919 42300.00000 0 7262423.207 -24467553.849 121654.783 10 0 60919 43200.00000 0 7022944.474 -24309222.326 3343094.067 10 0 60919 44100.00000 0 6724595.779 -23748090.440 6499703.211 10 0 60919 45000.00000 0 6424540.601 -22788672.134 9530269.838 10 0 60919 45900.00000 0 6178489.174 -21448909.328 12376025.050 10 0 60919 46800.00000 0 6038132.935 -19759541.427 14981778.708 10 0 60919 47700.00000 0 6048756.502 -17762957.018 17296985.437 10 0 60919 48600.00000 0 6247127.950 -15511575.096 19276721.049 10 0 60919 49500.00000 0 6659756.549 -13065822.621 20882550.950 10 0 60919 50400.00000 0 7301591.707 -10491791.827 22083274.090 10 0 60919 51300.00000 0 8175218.526 -7858673.908 22855528.463 10 0 60919 52200.00000 0 9270584.714 -5236074.788 23184246.693 10 0 60919 53100.00000 0 10565271.514 -2691323.664 23062952.932 10 0 60919 54000.00000 0 12025298.716 -286885.190 22493895.184 10 0 60919 54900.00000 0 13606431.527 1922017.938 21488010.039 10 0 60919 55800.00000 0 15255936.094 3889473.823 20064719.876 10 0 60919 56700.00000 0 16914711.512 5580556.110 18251565.595 10 0 60919 57600.00000 0 18519710.146 6972535.272 16083681.038 10 0 60919 58500.00000 0 20006545.580 8055576.236 13603118.361 10 0 60919 59400.00000 0 21312179.133 8832893.522 10858036.578 10 0 60919 60300.00000 0 22377572.101 9320357.767 7901768.410 10 0 60919 61200.00000 0 23150191.726 9545570.642 4791783.260 10 0 60919 62100.00000 0 23586264.688 9546447.717 1588566.498 10 0 60919 63000.00000 0 23652682.217 9369369.870 -1645562.783 10 0 60919 63900.00000 0 23328475.434 9066982.278 -4847671.794 10 0 60919 64800.00000 0 22605797.684 8695735.235 -7955447.197 10 0 60919 65700.00000 0 21490371.549 8313272.102 -10908416.345 10 0 60919 66600.00000 0 20001380.998 7975776.261 -13649131.722 10 0 60919 67500.00000 0 18170812.821 7735390.603 -16124294.686 10 0 60919 68400.00000 0 16042274.807 7637819.796 -18285795.939 10 0 60919 69300.00000 0 13669340.356 7720217.620 -20091652.115 10 0 60919 70200.00000 0 11113489.060 8009449.211 -21506820.247 10 0 60919 71100.00000 0 8441729.564 8520801.911 -22503874.596 10 0 60919 72000.00000 0 5724004.146 9257199.236 -23063533.210 10 0 60919 72900.00000 0 3030483.163 10208950.990 -23175024.742 10 0 60919 73800.00000 0 428861.692 11354049.984 -22836289.231 10 0 60919 74700.00000 0 -2018229.724 12659002.725 -22054009.709 10 0 60919 75600.00000 0 -4255593.519 14080159.156 -20843474.756 10 0 60919 76500.00000 0 -6237515.486 15565485.648 -19228275.144 10 0 60919 77400.00000 0 -7929413.269 17056707.016 -17239840.829 10 0 60919 78300.00000 0 -9309016.005 18491727.928 -14916827.405 10 0 60919 79200.00000 0 -10367027.732 19807232.465 -12304363.899 10 0 60919 80100.00000 0 -11107248.635 20941353.095 -9453176.408 10 0 60919 81000.00000 0 -11546150.781 21836297.408 -6418604.390 10 0 60919 81900.00000 0 -11711927.702 22440822.646 -3259528.493 10 0 60919 82800.00000 0 -11643059.051 22712454.328 -37230.589 10 0 60919 83700.00000 0 -11386451.802 22619355.929 3185792.016 10 0 60919 84600.00000 0 -10995237.039 22141771.066 6347035.320 10 0 60919 85500.00000 0 -10526315.760 21272977.501 9385196.938 10 0 60920 0.00000 0 -10037757.520 20019712.745 12241360.473 10 0 60920 900.00000 0 -9586161.477 18402052.168 14860134.685 10 0 60920 1800.00000 0 -9224091.814 16452745.858 17190721.864 10 0 60920 2700.00000 0 -8997694.691 14216038.881 19187900.180 10 0 60920 3600.00000 0 -8944597.779 11746024.826 20812897.564 10 0 60920 4500.00000 0 -9092180.648 9104599.636 22034142.128 10 0 60920 5400.00000 0 -9456289.076 6359099.836 22827874.778 10 0 60920 6300.00000 0 -10040447.868 3579722.205 23178612.392 10 0 60920 7200.00000 0 -10835606.002 836831.002 23079452.662 10 0 60920 8100.00000 0 -11820425.819 -1801736.529 22532214.576 10 0 60920 9000.00000 0 -12962105.326 -4273255.427 21547411.382 10 0 60920 9900.00000 0 -14217700.381 -6522482.424 20144055.935 10 0 60920 10800.00000 0 -15535892.542 -8503711.628 18349301.360 10 0 60920 11700.00000 0 -16859129.512 -10182431.411 16197923.030 10 0 60920 12600.00000 0 -18126049.095 -11536513.728 13731650.984 10 0 60920 13500.00000 0 -19274085.305 -12556886.512 10998364.858 10 0 60920 14400.00000 0 -20242147.070 -13247661.288 8051166.329 10 0 60920 15300.00000 0 -20973256.430 -13625710.995 4947346.756 10 0 60920 16200.00000 0 -21417034.318 -13719716.275 1747270.096 10 0 60920 17100.00000 0 -21531928.146 -13568721.067 -1486806.834 10 0 60920 18000.00000 0 -21287086.016 -13220259.296 -4691953.081 10 0 60920 18900.00000 0 -20663797.242 -12728132.835 -7805796.628 10 0 60920 19800.00000 0 -19656437.269 -12149935.869 -10767746.779 10 0 60920 20700.00000 0 -18272876.145 -11544431.589 -13520180.972 10 0 60920 21600.00000 0 -16534332.574 -10968893.416 -16009572.015 10 0 60920 22500.00000 0 -14474679.183 -10476524.237 -18187533.125 10 0 60920 23400.00000 0 -12139227.895 -10114063.615 -20011760.032 10 0 60920 24300.00000 0 -9583046.266 -9919684.576 -21446851.803 10 0 60920 25200.00000 0 -6868875.168 -9921269.031 -22464994.723 10 0 60920 26100.00000 0 -4064734.854 -10135134.513 -23046496.462 10 0 60920 27000.00000 0 -1241319.099 -10565265.637 -23180160.929 10 0 60920 27900.00000 0 1530714.395 -11203082.238 -22863497.307 10 0 60920 28800.00000 0 4183445.082 -12027753.499 -22102760.045 10 0 60920 29700.00000 0 6654270.693 -13007044.434 -20912819.688 10 0 60920 30600.00000 0 8888262.166 -14098658.848 -19316867.601 10 0 60920 31500.00000 0 10840195.780 -15252022.143 -17345960.642 10 0 60920 32400.00000 0 12476179.425 -16410429.005 -15038414.799 10 0 60920 33300.00000 0 13774806.928 -17513465.827 -12439059.504 10 0 60920 34200.00000 0 14727793.956 -18499606.198 -9598367.040 10 0 60920 35100.00000 0 15340070.576 -19308870.564 -6571473.708 10 0 60920 36000.00000 0 15629328.192 -19885438.444 -3417111.592 10 0 60920 36900.00000 0 15625041.224 -20180103.459 -196471.451 10 0 60920 37800.00000 0 15367005.818 -20152468.020 3027981.295 10 0 60920 38700.00000 0 14903457.925 -19772785.280 6193714.699 10 0 60920 39600.00000 0 14288850.639 -19023370.732 9239339.144 10 0 60920 40500.00000 0 13581384.798 -17899523.756 12105793.666 10 0 60920 41400.00000 0 12840397.043 -16409919.844 14737486.949 10 0 60920 42300.00000 0 12123715.387 -14576456.313 17083371.123 10 0 60920 43200.00000 0 11485093.512 -12433556.988 19097927.934 10 0 60920 44100.00000 0 10971831.622 -10026963.781 20742048.622 10 0 60920 45000.00000 0 10622683.809 -7412064.348 21983790.840 10 0 60920 45900.00000 0 10466139.866 -4651824.133 22798998.395 10 0 60920 46800.00000 0 10519153.843 -1814407.442 23171772.052 10 0 60920 47700.00000 0 10786373.123 1029414.913 23094782.363 10 0 60920 48600.00000 0 11259900.901 3808964.991 22569418.354 10 0 60920 49500.00000 0 11919602.856 6456353.191 21605768.760 10 0 60920 50400.00000 0 12733946.025 8909058.769 20222435.565 10 0 60920 51300.00000 0 13661335.653 11112288.871 18446182.628 10 0 60920 52200.00000 0 14651894.791 13021018.517 16311425.238 10 0 60920 53100.00000 0 15649612.568 14601626.807 13859569.585 10 0 60920 54000.00000 0 16594771.246 15833061.316 11138214.079 10 0 60920 54900.00000 0 17426549.997 16707482.156 8200227.378 10 0 60920 55800.00000 0 18085695.370 17230358.865 5102720.687 10 0 60920 56700.00000 0 18517145.189 17420016.409 1905934.328 10 0 60920 57600.00000 0 18672494.144 17306649.832 -1327939.478 10 0 60920 58500.00000 0 18512195.757 16930849.757 -4535973.980 10 0 60920 59400.00000 0 18007406.425 16341701.842 -7655740.821 10 0 60920 60300.00000 0 17141392.304 15594541.481 -10626533.529 10 0 60920 61200.00000 0 15910438.501 14748459.780 -13390556.624 10 0 60920 62100.00000 0 14324221.144 13863667.369 -15894056.329 10 0 60920 63000.00000 0 12405625.893 12998828.474 -18088370.156 10 0 60920 63900.00000 0 10190019.911 12208478.713 -19930874.540 10 0 60920 64800.00000 0 7724007.511 11540636.165 -21385812.033 10 0 60920 65700.00000 0 5063721.289 11034706.701 -22424982.243 10 0 60920 66600.00000 0 2272720.069 10719771.759 -23028283.625 10 0 60920 67500.00000 0 -580418.874 10613330.253 -23184096.305 10 0 60920 68400.00000 0 -3424713.291 10720546.950 -22889499.351 10 0 60920 69300.00000 0 -6189486.854 11034038.134 -22150319.044 10 0 60920 70200.00000 0 -8807065.432 11534202.816 -20981007.953 10 0 60920 71100.00000 0 -11215347.604 12190084.795 -19404357.673 10 0 60920 72000.00000 0 -13360143.655 12960728.745 -17451051.188 10 0 60920 72900.00000 0 -15197187.078 13796972.854 -15159063.687 10 0 60920 73800.00000 0 -16693736.292 14643602.367 -12572923.461 10 0 60920 74700.00000 0 -17829701.293 15441773.287 -9742847.117 10 0 60920 75600.00000 0 -18598249.735 16131604.241 -6723765.701 10 0 60920 76500.00000 0 -19005868.557 16654827.422 -3574260.418 10 0 60920 77400.00000 0 -19071879.911 16957387.029 -355428.443 10 0 60920 78300.00000 0 -18827432.851 16991875.773 2870299.314 10 0 60920 79200.00000 0 -18314014.105 16719706.765 6040365.701 10 0 60920 80100.00000 0 -17581541.216 16112929.124 9093296.713 10 0 60920 81000.00000 0 -16686118.743 15155610.545 11969889.487 10 0 60920 81900.00000 0 -15687552.130 13844728.115 14614356.081 10 0 60920 82800.00000 0 -14646723.896 12190529.208 16975401.093 10 0 60920 83700.00000 0 -13622942.301 10216346.297 19007212.626 10 0 60920 84600.00000 0 -12671373.723 7957872.199 20670347.820 10 0 60920 85500.00000 0 -11840666.303 5461924.674 21932496.202 99